Weather History for Cape Girardeau, MO

Change the Weather History Date:

Tuesday, December 25, 2012

  Actual Average Record
Temperature  
Mean Temperature 32 °F 34 °F  
Max Temperature 37 °F 43 °F 65 °F (1982)
Min Temperature 27 °F 25 °F -10 °F (2004)
Degree Days  
Heating Degree Days 33 31  
Month to date heating degree days 472 711  
Since 1 July heating degree days 1411 1562  
Cooling Degree Days 0 0  
Month to date cooling degree days 0 0  
Year to date cooling degree days 1784 1453  
Moisture  
Dew Point 25 °F    
Average Humidity 73    
Maximum Humidity 82    
Minimum Humidity 64    
Precipitation  
Precipitation T in 0.13 in 3.48 in (1987)
Month to date precipitation 1.26 3.51  
Year to date precipitation 26.54 46.07  
Sea Level Pressure  
Sea Level Pressure 30.03 in    
Wind  
Wind Speed 18 mph (NNE)    
Max Wind Speed 32 mph    
Max Gust Speed 43 mph    
Visibility 7 miles    
Events Snow    
T = Trace of Precipitation, MM = Missing Value Source: NWS Daily Summary

Daily Weather History Graph

Daily Weather History Graph

Search for Another Location

Airport:

Trip Planner

Search our weather history database for the weather conditions in past years. The results will help you decide how hot, cold, wet, or windy it might be!

Date:

Astronomy

Dec. 25, 2012 Rise Set
Actual Time 7:10 AM CST 4:46 PM CST
Civil Twilight 6:41 AM CST 5:16 PM CST
Nautical Twilight 6:08 AM CST 5:48 PM CST
Astronomical Twilight 5:36 AM CST 6:20 PM CST
Moon 2:54 PM CST 4:43 AM CST
Length of Visible Light 10h 34m
Length of Day
9h 36m
Waxing Gibbous, 94% of the Moon is Illuminated
Dec 25
Waxing Gibbous
Dec 28
Full
Jan 4
Last Quarter
Jan 11
New
Jan 18
First Quarter

Hourly Weather History & Observations

Time (CST) Temp. Windchill Dew Point Humidity Pressure Visibility Wind Dir Wind Speed Gust Speed Precip Events Conditions
12:53 AM 28.0 °F 18.1 °F 21.9 °F 78% 30.11 in 6.0 mi NNE 11.5 mph - N/A   Haze
1:53 AM 28.0 °F 17.5 °F 21.0 °F 75% 30.11 in 7.0 mi NNE 12.7 mph - N/A   Overcast
2:11 AM 28.4 °F 18.5 °F 21.2 °F 74% 30.11 in 7.0 mi North 11.5 mph - N/A   Overcast
2:53 AM 28.0 °F 18.1 °F 21.9 °F 78% 30.13 in 6.0 mi North 11.5 mph - N/A   Haze
3:53 AM 28.0 °F 17.0 °F 21.9 °F 78% 30.12 in 7.0 mi NNE 13.8 mph - N/A   Overcast
4:53 AM 28.0 °F 18.6 °F 21.9 °F 78% 30.12 in 6.0 mi NNE 10.4 mph 19.6 mph N/A   Haze
5:53 AM 28.0 °F 17.0 °F 21.9 °F 78% 30.10 in 6.0 mi NNE 13.8 mph - N/A   Haze
6:44 AM 26.6 °F 15.7 °F 21.2 °F 80% 30.11 in 6.0 mi NNE 12.7 mph - N/A   Haze
6:53 AM 27.0 °F 18.7 °F 21.0 °F 78% 30.13 in 6.0 mi NNE 8.1 mph - N/A   Haze
7:53 AM 27.0 °F 18.0 °F 21.0 °F 78% 30.17 in 5.0 mi NNE 9.2 mph - N/A   Haze
8:38 AM 28.4 °F 18.0 °F 21.2 °F 74% 30.15 in 6.0 mi NNE 12.7 mph - N/A   Haze
8:53 AM 28.9 °F 17.7 °F 23.0 °F 78% 30.17 in 6.0 mi NE 15.0 mph - N/A   Haze
9:38 AM 30.2 °F 20.8 °F 23.0 °F 75% 30.19 in 6.0 mi NNE 11.5 mph - N/A   Haze
9:53 AM 30.9 °F 20.2 °F 23.0 °F 72% 30.19 in 6.0 mi NNE 15.0 mph - N/A   Haze
10:01 AM 30.2 °F 19.3 °F 24.8 °F 80% 30.17 in 6.0 mi NNE 15.0 mph - N/A   Haze
10:53 AM 32.0 °F 21.2 °F 25.0 °F 75% 30.14 in 7.0 mi NE 16.1 mph - N/A   Scattered Clouds
11:53 AM 35.1 °F 24.8 °F 26.1 °F 70% 30.10 in 7.0 mi NE 17.3 mph 24.2 mph N/A   Partly Cloudy
12:46 PM 35.6 °F 24.8 °F 26.6 °F 70% 30.06 in 8.0 mi NNE 19.6 mph - N/A   Mostly Cloudy
12:53 PM 36.0 °F 25.6 °F 26.1 °F 67% 30.05 in 8.0 mi NE 18.4 mph - N/A   Mostly Cloudy
1:53 PM 37.0 °F 25.6 °F 26.1 °F 65% 30.00 in 9.0 mi NE 24.2 mph 31.1 mph N/A   Overcast
2:53 PM 37.0 °F 27.4 °F 26.1 °F 65% 30.00 in 10.0 mi NE 17.3 mph 27.6 mph N/A   Overcast
3:53 PM 36.0 °F 25.0 °F 25.0 °F 64% 30.03 in 10.0 mi NNE 20.7 mph - N/A   Overcast
4:53 PM 35.1 °F 23.8 °F 25.0 °F 67% 30.01 in 10.0 mi NNE 20.7 mph 25.3 mph N/A   Overcast
5:04 PM 35.6 °F 25.5 °F 24.8 °F 65% 29.99 in 10.0 mi NNE 17.3 mph 29.9 mph N/A   Overcast
5:14 PM 35.6 °F 24.2 °F 24.8 °F 65% 30.00 in 10.0 mi NE 21.9 mph 29.9 mph N/A   Overcast
5:40 PM 35.6 °F 24.0 °F 26.6 °F 70% 29.96 in 10.0 mi NE 23.0 mph 33.4 mph N/A   Overcast
5:53 PM 35.1 °F 23.3 °F 26.1 °F 70% 29.97 in 10.0 mi NNE 23.0 mph 32.2 mph N/A   Overcast
6:53 PM 34.0 °F 22.4 °F 27.0 °F 75% 29.94 in 7.0 mi NNE 20.7 mph 25.3 mph 0.00 in   Overcast
7:43 PM 33.8 °F 21.6 °F 28.4 °F 81% 29.91 in 8.0 mi NNE 23.0 mph 33.4 mph 0.00 in   Overcast
7:53 PM 34.0 °F 22.7 °F 28.0 °F 79% 29.91 in 8.0 mi NE 19.6 mph 32.2 mph 0.00 in   Overcast
8:53 PM 34.0 °F 20.8 °F 28.0 °F 79% 29.86 in 9.0 mi NNE 27.6 mph 34.5 mph 0.00 in   Overcast
9:13 PM 33.8 °F 21.9 °F 28.4 °F 81% 29.85 in 9.0 mi NNE 21.9 mph 36.8 mph N/A   Overcast
9:53 PM 34.0 °F 19.9 °F 28.0 °F 79% 29.81 in 10.0 mi NNE 32.2 mph 41.4 mph N/A   Overcast
11:13 PM 33.8 °F 21.0 °F 28.4 °F 81% 29.78 in 2.5 mi NNE 25.3 mph 34.5 mph 0.00 in Snow Light Snow
11:45 PM 33.8 °F 20.5 °F 28.4 °F 81% 29.76 in 1.2 mi North 27.6 mph 36.8 mph 0.00 in Snow Light Snow
11:53 PM 32.0 °F 18.1 °F 28.4 °F 87% 29.76 in 1.0 mi North 27.6 mph 34.5 mph N/A Snow Light Snow